TimeEST,TemperatureF,Dew PointF,Humidity,Sea Level PressureIn,VisibilityMPH,Wind Direction,Wind SpeedMPH,Gust SpeedMPH,PrecipitationIn,Events,Conditions,WindDirDegrees,DateUTC
12:03 AM,33.8,30.2,87,29.71,4.0,Calm,Calm,-,0.00,Snow,Light Snow,0,2013-02-14 05:03:00
12:53 AM,33.1,30.0,89,29.72,6.0,Calm,Calm,-,0.00,,Overcast,0,2013-02-14 05:53:00
1:53 AM,34.0,30.0,85,29.75,8.0,Calm,Calm,-,N/A,,Overcast,0,2013-02-14 06:53:00
2:19 AM,33.8,30.2,87,29.75,9.0,NE,3.5,-,N/A,,Overcast,40,2013-02-14 07:19:00
2:45 AM,33.8,28.4,81,29.76,10.0,ENE,4.6,-,N/A,,Overcast,60,2013-02-14 07:45:00
2:53 AM,33.1,28.9,85,29.77,10.0,Calm,Calm,-,N/A,,Overcast,0,2013-02-14 07:53:00
3:53 AM,33.1,28.9,85,29.79,9.0,Calm,Calm,-,N/A,,Overcast,0,2013-02-14 08:53:00
4:34 AM,30.2,28.4,93,29.79,6.0,Calm,Calm,-,N/A,,Scattered Clouds,0,2013-02-14 09:34:00
4:53 AM,30.0,27.0,88,29.81,5.0,Calm,Calm,-,N/A,,Clear,0,2013-02-14 09:53:00
5:39 AM,28.4,24.8,86,29.81,4.0,Calm,Calm,-,N/A,,Clear,0,2013-02-14 10:39:00
5:53 AM,27.0,24.1,89,29.83,4.0,Calm,Calm,-,N/A,,Clear,0,2013-02-14 10:53:00
6:53 AM,25.0,23.0,92,29.86,3.0,Calm,Calm,-,N/A,,Clear,0,2013-02-14 11:53:00
7:24 AM,24.8,21.2,86,29.87,2.5,Calm,Calm,-,N/A,,Clear,0,2013-02-14 12:24:00
7:37 AM,26.6,23.0,86,29.88,3.0,Calm,Calm,-,N/A,,Clear,0,2013-02-14 12:37:00
7:53 AM,30.0,26.1,85,29.90,5.0,NW,5.8,-,N/A,,Clear,320,2013-02-14 12:53:00
8:53 AM,34.0,23.0,64,29.93,10.0,WNW,4.6,-,N/A,,Clear,300,2013-02-14 13:53:00
9:53 AM,37.0,23.0,57,29.95,10.0,Variable,5.8,-,N/A,,Clear,0,2013-02-14 14:53:00
10:53 AM,39.0,23.0,53,29.94,10.0,North,8.1,-,N/A,,Clear,360,2013-02-14 15:53:00
11:53 AM,37.9,23.0,55,29.94,10.0,Calm,Calm,-,0.00,,Clear,0,2013-02-14 16:53:00
12:53 PM,41.0,23.0,49,29.92,10.0,Calm,Calm,-,0.00,,Clear,0,2013-02-14 17:53:00
1:53 PM,43.0,23.0,45,29.92,10.0,Calm,Calm,-,N/A,,Clear,0,2013-02-14 18:53:00
2:53 PM,43.0,23.0,45,29.93,10.0,South,6.9,-,N/A,,Clear,180,2013-02-14 19:53:00
3:53 PM,43.0,25.0,49,29.93,10.0,SSW,6.9,-,N/A,,Clear,210,2013-02-14 20:53:00
4:53 PM,41.0,25.0,53,29.94,10.0,South,5.8,-,N/A,,Clear,190,2013-02-14 21:53:00
5:53 PM,39.9,25.0,55,29.95,10.0,SSW,3.5,-,N/A,,Clear,210,2013-02-14 22:53:00
6:53 PM,36.0,25.0,64,29.96,10.0,Calm,Calm,-,N/A,,Clear,0,2013-02-14 23:53:00
7:53 PM,33.1,26.1,75,29.97,10.0,Calm,Calm,-,N/A,,Clear,0,2013-02-15 00:53:00
8:53 PM,30.9,25.0,79,29.98,9.0,Calm,Calm,-,N/A,,Clear,0,2013-02-15 01:53:00
9:53 PM,30.0,25.0,82,29.99,9.0,Calm,Calm,-,N/A,,Overcast,0,2013-02-15 02:53:00
10:53 PM,28.0,24.1,85,29.98,7.0,Calm,Calm,-,N/A,,Clear,0,2013-02-15 03:53:00
11:53 PM,28.0,24.1,85,29.98,7.0,Calm,Calm,-,N/A,,Overcast,0,2013-02-15 04:53:00